Вернуться в каталог

OPS 4682 DEB

АктивенPO
NORAD 14049·DEBRIS·🇺🇸 United States

Запущен Apr 3, 1965 с Vandenberg Space Force Base

Loading…

Ближайшие Пролёты (ближайшие 24 часа)

TLE

СвежийSource: Space-Track

Эпоха: Sep 11, 2026, 19:31 UTC

1 14049U 65027L   26254.81333330  .00000329  00000-0  11517-2 0  9992
2 14049  90.2528  10.4036 0038482 320.3036 194.7929 12.94623504 69431

Отслеживайте OPS 4682 DEB в реальном времени с AllMySat

Download on the App Store